Amateur Radio Satellites - All Passes

Search period start: 19 June 2013 22:54
Search period end: 20 June 2013 22:54
Location: McCall, 45.0000°N, 116.0000°W

Satellite Date Start Highest point End Downlink Frequencies (MHz)
Time Altitude Azimuth
RS-15 19 Jun 23:05:22 23:15:14 40° 252° (WSW) 23:24:58 29.354 - 29.394 USB, Beacon 29.352 USB
Oscar 10/S400 19 Jun 23:14:19 05:38:31 34° 95° (E) 08:10:15 145.825 - 145.975 CW/USB, Beacon 145.810 USB
Oscar 11 19 Jun 23:18:30 23:22:35 39° 262° (W) 23:26:43 145.825 FM, Beacon 2401.500 USB
ISS 19 Jun 23:19:47 23:22:48 35° 219° (SW) 23:25:50 145.800 FM
JAS-2 19 Jun 23:41:44 23:47:54 29° 266° (W) 23:53:36 435.800 - 435.900 CW/SSB, 435.910 FM
KITSAT 1 19 Jun 23:50:59 23:56:07 18° 12° (NNE) 00:01:15 435.175 FM
HO-68 19 Jun 23:56:51 00:01:49 20° 270° (W) 00:06:50 435.675 MHz FM
Saudisat 1A 20 Jun 00:02:09 00:06:36 49° 311° (NW) 00:11:06 436.775 MHz
OPAL 20 Jun 00:22:46 00:27:11 31° 262° (W) 00:31:36 ?
Sapphire 20 Jun 00:34:52 00:37:44 15° 103° (ESE) 00:40:37 437.095 MHz 1200 baud AX-25 AFSK
SO-50 20 Jun 01:14:43 01:17:53 18° 111° (ESE) 01:21:02 436.795 FM
PCSat 20 Jun 01:40:34 01:45:50 55° 116° (ESE) 01:51:08 145.825 MHz
Saudisat 1A 20 Jun 01:45:26 01:47:24 12° 333° (NNW) 01:49:22 436.775 MHz
KITSAT 1 20 Jun 01:46:52 01:54:18 37° 40° (NE) 02:01:42 435.175 FM
Sapphire 20 Jun 02:15:00 02:20:25 85° 301° (WNW) 02:25:53 437.095 MHz 1200 baud AX-25 AFSK
Oscar 19 20 Jun 02:20:38 02:23:14 14° 88° (E) 02:25:49 437.125 CW, 437.150 USB
ITAMSAT 1 20 Jun 02:46:22 02:50:10 20° 92° (E) 02:53:57 435.822 SSB
AO-27 20 Jun 02:47:35 02:51:31 21° 92° (E) 02:55:24 436.795 MHz FM
SO-50 20 Jun 02:53:19 02:58:03 65° 308° (NW) 03:02:44 436.795 FM
Oscar 16 20 Jun 03:04:14 03:09:05 40° 98° (E) 03:13:53 437.025 USB, Beacon 2401.1428
AO-Echo 20 Jun 03:17:02 03:20:02 15° 89° (E) 03:23:03 ?
Uribyol 2 20 Jun 03:18:59 03:23:54 40° 98° (E) 03:28:46 436.500 FM
PCSat 20 Jun 03:24:55 03:29:34 28° 316° (NW) 03:34:16 145.825 MHz
KITSAT 1 20 Jun 03:42:13 03:50:17 68° 243° (WSW) 03:58:19 435.175 FM
Oscar 19 20 Jun 03:58:04 04:03:12 78° 286° (WNW) 04:08:18 437.125 CW, 437.150 USB
Sapphire 20 Jun 04:00:53 04:04:41 19° 323° (NW) 04:08:30 437.095 MHz 1200 baud AX-25 AFSK
ITAMSAT 1 20 Jun 04:24:55 04:30:03 57° 289° (WNW) 04:35:09 435.822 SSB
AO-27 20 Jun 04:26:15 04:31:22 54° 290° (WNW) 04:36:27 436.795 MHz FM
Gurwin Techsat 1B 20 Jun 04:27:01 04:31:18 24° 93° (E) 04:35:33 435.225 FM
UOSAT-12 20 Jun 04:29:38 04:33:39 33° 116° (ESE) 04:37:43 437.025 FM, 437.400 FM
SO-50 20 Jun 04:36:53 04:39:34 15° 329° (NNW) 04:42:14 436.795 FM
Oscar 16 20 Jun 04:43:57 04:48:17 28° 296° (WNW) 04:52:35 437.025 USB, Beacon 2401.1428
AO-Echo 20 Jun 04:54:11 04:59:20 74° 286° (WNW) 05:04:34 ?
Uribyol 2 20 Jun 04:58:48 05:03:15 29° 296° (WNW) 05:07:40 436.500 FM
Uosat F 20 Jun 05:14:33 05:19:36 66° 102° (ESE) 05:24:37 435.120 FM
AO-7 20 Jun 05:21:06 05:27:05 21° 90° (E) 05:33:01 29.400 - 29.500 MHz
TMSAT-1 20 Jun 05:25:18 05:30:31 53° 100° (E) 05:35:41 436.925 FM
MaSat-1 20 Jun 05:39:25 05:41:55 43° 59° (ENE) 05:44:20 437.345 MHz
Oscar 19 20 Jun 05:39:51 05:41:42 12° 305° (NW) 05:43:34 437.125 CW, 437.150 USB
KITSAT 1 20 Jun 05:40:35 05:44:10 14° 262° (W) 05:47:45 435.175 FM
Gurwin Techsat 1B 20 Jun 06:06:25 06:11:31 48° 291° (WNW) 06:16:36 435.225 FM
UOSAT-12 20 Jun 06:09:37 06:13:47 35° 315° (NW) 06:18:00 437.025 FM, 437.400 FM
AO-Echo 20 Jun 06:35:35 06:37:17 12° 304° (NW) 06:38:59 ?
Saudisat 1A 20 Jun 06:48:15 06:52:29 35° 45° (NE) 06:56:36 436.775 MHz
STRAND 1 20 Jun 06:49:19 06:54:17 53° 70° (ENE) 06:59:18 ?
Uosat F 20 Jun 06:54:31 06:57:54 18° 300° (WNW) 07:01:17 435.120 FM
TMSAT-1 20 Jun 07:05:59 07:10:05 23° 298° (WNW) 07:14:11 436.925 FM
AO-7 20 Jun 07:12:28 07:20:54 88° 290° (WNW) 07:29:15 29.400 - 29.500 MHz
JAS-1B 20 Jun 07:44:54 07:47:51 14° 90° (E) 07:50:56 435.800 - 435.900 CW/SSB
Hamsat 20 Jun 07:45:46 07:48:44 18° 91° (E) 07:51:40 145.90 MHz
Saudisat 1A 20 Jun 08:28:05 08:32:08 32° 244° (WSW) 08:36:06 436.775 MHz
STRAND 1 20 Jun 08:30:01 08:33:49 21° 268° (W) 08:37:39 ?
PCSat 20 Jun 08:44:12 08:47:31 16° 34° (NE) 08:50:50 145.825 MHz
AO-7 20 Jun 09:06:24 09:12:38 24° 311° (NW) 09:18:51 29.400 - 29.500 MHz
Sapphire 20 Jun 09:18:22 09:22:42 24° 41° (NE) 09:27:02 437.095 MHz 1200 baud AX-25 AFSK
Hamsat 20 Jun 09:20:51 09:25:05 48° 288° (WNW) 09:29:15 145.90 MHz
JAS-1B 20 Jun 09:33:19 09:39:11 88° 286° (WNW) 09:45:49 435.800 - 435.900 CW/SSB
SO-67 20 Jun 09:33:54 09:37:31 89° 102° (ESE) 09:41:06 435.3500 MHz FM
HO-68 20 Jun 09:34:37 09:37:32 13° 85° (E) 09:40:26 435.675 MHz FM
SO-50 20 Jun 09:43:31 09:47:34 30° 43° (NE) 09:51:33 436.795 FM
PCSat 20 Jun 10:26:34 10:32:01 68° 56° (NE) 10:37:24 145.825 MHz
JAS-2 20 Jun 10:48:37 10:53:33 35° 96° (E) 10:58:16 435.800 - 435.900 CW/SSB, 435.910 FM
Sapphire 20 Jun 11:01:15 11:06:41 71° 242° (WSW) 11:12:04 437.095 MHz 1200 baud AX-25 AFSK
Oscar 11 20 Jun 11:04:29 11:08:26 32° 96° (E) 11:12:21 145.825 FM, Beacon 2401.500 USB
UOSAT-12 20 Jun 11:18:15 11:20:18 13° 28° (NNE) 11:22:22 437.025 FM, 437.400 FM
RS-15 20 Jun 11:19:07 11:29:01 32° 105° (ESE) 11:38:34 29.354 - 29.394 USB, Beacon 29.352 USB
HO-68 20 Jun 11:19:15 11:26:28 71° 104° (ESE) 11:33:38 435.675 MHz FM
SO-50 20 Jun 11:24:02 11:28:16 39° 242° (WSW) 11:32:26 436.795 FM
JAS-1B 20 Jun 11:26:02 11:29:12 15° 304° (NW) 11:32:32 435.800 - 435.900 CW/SSB
PCSat 20 Jun 12:11:07 12:14:54 20° 254° (WSW) 12:18:40 145.825 MHz
OPAL 20 Jun 12:29:51 12:34:44 56° 103° (ESE) 12:39:39 ?
JAS-2 20 Jun 12:33:54 12:38:38 31° 296° (WNW) 12:43:08 435.800 - 435.900 CW/SSB, 435.910 FM
Oscar 11 20 Jun 12:40:53 12:44:33 27° 294° (WNW) 12:48:12 145.825 FM, Beacon 2401.500 USB
Oscar 16 20 Jun 12:48:19 12:49:48 11° 55° (NE) 12:51:18 437.025 USB, Beacon 2401.1428
UOSAT-12 20 Jun 12:57:02 13:01:33 52° 49° (NE) 13:06:03 437.025 FM, 437.400 FM
Uribyol 2 20 Jun 13:03:36 13:05:24 12° 55° (NE) 13:07:13 436.500 FM
HO-68 20 Jun 13:07:49 13:13:33 27° 304° (NW) 13:19:18 435.675 MHz FM
RS-15 20 Jun 13:28:23 13:40:23 80° 307° (NW) 13:51:51 29.354 - 29.394 USB, Beacon 29.352 USB
Oscar 19 20 Jun 13:38:55 13:43:08 26° 64° (ENE) 13:47:22 437.125 CW, 437.150 USB
ITAMSAT 1 20 Jun 14:06:05 14:10:50 37° 67° (ENE) 14:15:37 435.822 SSB
AO-27 20 Jun 14:07:28 14:12:16 39° 67° (ENE) 14:17:06 436.795 MHz FM
OPAL 20 Jun 14:09:37 14:13:16 21° 301° (WNW) 14:16:55 ?
Oscar 16 20 Jun 14:23:07 14:28:16 72° 73° (ENE) 14:33:26 437.025 USB, Beacon 2401.1428
AO-Echo 20 Jun 14:32:10 14:35:50 23° 63° (ENE) 14:39:34 ?
UOSAT-12 20 Jun 14:37:53 14:41:24 22° 247° (WSW) 14:44:55 437.025 FM, 437.400 FM
Uribyol 2 20 Jun 14:38:47 14:43:59 74° 73° (ENE) 14:49:14 436.500 FM
Uosat F 20 Jun 14:53:41 14:56:43 16° 59° (ENE) 14:59:46 435.120 FM
TMSAT-1 20 Jun 15:11:10 15:14:12 16° 58° (ENE) 15:17:14 436.925 FM
Oscar 19 20 Jun 15:17:20 15:22:16 45° 261° (W) 15:27:13 437.125 CW, 437.150 USB
RS-15 20 Jun 15:44:25 15:54:47 35° 335° (NNW) 16:04:47 29.354 - 29.394 USB, Beacon 29.352 USB
ITAMSAT 1 20 Jun 15:45:47 15:50:23 31° 264° (W) 15:55:01 435.822 SSB
AO-27 20 Jun 15:47:21 15:51:52 30° 265° (W) 15:56:26 436.795 MHz FM
Gurwin Techsat 1B 20 Jun 15:49:54 15:54:56 45° 69° (ENE) 15:59:59 435.225 FM
ISS 20 Jun 16:03:20 16:06:03 24° 138° (SE) 16:08:46 145.800 FM
Oscar 16 20 Jun 16:05:09 16:08:10 16° 271° (W) 16:11:12 437.025 USB, Beacon 2401.1428
AO-Echo 20 Jun 16:09:50 16:14:21 45° 262° (W) 16:19:00 ?
Uribyol 2 20 Jun 16:21:02 16:24:03 15° 271° (W) 16:27:05 436.500 FM
AO-7 20 Jun 16:21:57 16:29:21 37° 57° (ENE) 16:36:46 29.400 - 29.500 MHz
KITSAT 1 20 Jun 16:22:29 16:25:57 13° 98° (E) 16:29:27 435.175 FM
Uosat F 20 Jun 16:29:55 16:34:56 75° 257° (WSW) 16:40:00 435.120 FM
TMSAT-1 20 Jun 16:48:07 16:53:26 85° 256° (WSW) 16:58:47 436.925 FM
Gurwin Techsat 1B 20 Jun 17:30:43 17:35:06 26° 267° (W) 17:39:31 435.225 FM
ISS 20 Jun 17:39:20 17:42:34 55° 335° (NNW) 17:45:47 145.800 FM
RS-15 20 Jun 18:02:09 18:11:35 28° 10° (N) 18:20:43 29.354 - 29.394 USB, Beacon 29.352 USB
KITSAT 1 20 Jun 18:11:51 18:19:49 68° 117° (ESE) 18:27:52 435.175 FM
AO-7 20 Jun 18:13:37 18:21:47 59° 257° (WSW) 18:30:03 29.400 - 29.500 MHz
TMSAT-1 20 Jun 18:32:36 18:34:10 11° 274° (W) 18:35:45 436.925 FM
JAS-1B 20 Jun 18:33:43 18:37:32 17° 57° (ENE) 18:41:07 435.800 - 435.900 CW/SSB
Hamsat 20 Jun 18:42:10 18:45:04 18° 63° (ENE) 18:48:00 145.90 MHz
STRAND 1 20 Jun 18:59:25 19:02:27 16° 90° (E) 19:05:27 ?
ISS 20 Jun 19:16:57 19:19:44 25° 355° (N) 19:22:30 145.800 FM
HO-68 20 Jun 20:06:20 20:10:06 15° 47° (NE) 20:13:53 435.675 MHz FM
KITSAT 1 20 Jun 20:08:26 20:15:48 37° 320° (NW) 20:23:14 435.175 FM
MaSat-1 20 Jun 20:11:12 20:16:25 48° 114° (ESE) 20:20:30 437.345 MHz
SO-67 20 Jun 20:11:29 20:14:52 42° 73° (ENE) 20:18:17 435.3500 MHz FM
AO-7 20 Jun 20:15:08 20:16:22 10° 277° (W) 20:17:37 29.400 - 29.500 MHz
RS-15 20 Jun 20:16:15 20:27:11 54° 42° (NE) 20:37:47 29.354 - 29.394 USB, Beacon 29.352 USB
Hamsat 20 Jun 20:16:31 20:20:45 52° 261° (W) 20:25:03 145.90 MHz
JAS-1B 20 Jun 20:20:47 20:27:38 86° 255° (WSW) 20:33:35 435.800 - 435.900 CW/SSB
STRAND 1 20 Jun 20:37:01 20:42:11 72° 287° (WNW) 20:47:19 ?
ISS 20 Jun 20:54:02 20:57:02 33° 15° (NNE) 21:00:02 145.800 FM
JAS-2 20 Jun 21:02:26 21:08:04 26° 62° (ENE) 21:13:15 435.800 - 435.900 CW/SSB, 435.910 FM
SO-67 20 Jun 21:46:46 21:48:33 13° 269° (W) 21:50:20 435.3500 MHz FM
HO-68 20 Jun 21:49:27 21:56:29 65° 68° (ENE) 22:03:35 435.675 MHz FM
MaSat-1 20 Jun 21:54:30 21:58:17 22° 306° (NW) 22:01:27 437.345 MHz
Oscar 11 20 Jun 22:01:45 22:05:40 33° 69° (ENE) 22:09:36 145.825 FM, Beacon 2401.500 USB
KITSAT 1 20 Jun 22:08:52 22:13:59 18° 348° (NNW) 22:19:07 435.175 FM
OPAL 20 Jun 22:10:10 22:13:35 19° 58° (ENE) 22:16:58 ?
JAS-1B 20 Jun 22:16:09 22:18:59 13° 271° (W) 22:21:42 435.800 - 435.900 CW/SSB
STRAND 1 20 Jun 22:18:56 22:20:28 11° 306° (NW) 22:22:00 ?
RS-15 20 Jun 22:29:04 22:39:33 52° 247° (WSW) 22:49:52 29.354 - 29.394 USB, Beacon 29.352 USB
ISS 20 Jun 22:30:40 22:33:54 60° 214° (SW) 22:37:07 145.800 FM
Saudisat 1A 20 Jun 22:36:37 22:40:54 42° 118° (ESE) 22:45:15 436.775 MHz

Developed and maintained by Chris Peat, Heavens-Above GmbH. Please read the updated FAQ before sending e-mail. Imprint. DLR
